Location: Eastchurch
(51.4000°N, 0.8667°E)
Time: 23:47:55
(UTC+00:00)

SKYMED 2 - Pass Details

Date: 19 January 2026
Orbit: 622 x 624 km, 97.9° (Epoch: 17 February)

Event Time Altitude Azimuth Distance (km) Brightness Sun altitude
Exits shadow 17:24:34 - 25° (NNE) 2,603 6.3 -9.3°
Reaches altitude 10° 17:26:11 10° 33° (NNE) 2,004 5.7 -9.5°
Maximum altitude 17:30:03 30° 95° (E) 1,126 4.4 -10.1°
Drops below altitude 10° 17:33:51 10° 157° (SSE) 1,989 6.1 -10.7°
Sets 17:36:15 0° 168° (SSE) 2,890 7.1 -11.0°
